Regional Weather Roundup
Issued by NWS Sioux Falls, SD

Home | Current Version | Previous Version | Text Only | Print | Product List | Glossary On
Versions: 1 2 3 4 5 6 7 8 9 10 11 12 13 14 15 16 17 18 19 20 21 22 23 24 25 26 27 28 29 30 31 32 33 34 35 36 37 38 39 40 41 42 43 44 45 46 47 48 49 50
000
ASUS43 KFSD 280110
RWRFSD

WEATHER ROUNDUP FOR SE SOUTH DAKOTA/SW MINNESOTA/NW IOWA
NATIONAL WEATHER SERVICE SIOUX FALLS SD
700 PM CST FRI FEB 27 2015

NOTE: "FAIR" INDICATES FEW OR NO CLOUDS BELOW 12,000 FEET WITH NO
SIGNIFICANT WEATHER AND OR OBSTRUCTIONS TO VISIBILITY.


SDZ038>040-050-052>070-280200-
SOUTHEAST SOUTH DAKOTA

CITY           SKY/WX    TMP DP  RH WIND       PRES   REMARKS
CHAMBERLAIN    CLEAR     13  -6  41 SE8       30.28S WCI   2
HURON          CLEAR     14   1  56 SE9       30.35S WCI   2
MADISON        FAIR       7   1  78 SE8       30.38S WCI  -6
MITCHELL       CLEAR     17   0  47 SE10      30.38S WCI   5
SIOUX FALLS    CLEAR     11   1  64 SE10      30.42S WCI  -3
WINNER         FAIR      21  -5  31 SE12      30.23S WCI   9
YANKTON        CLEAR     16   3  57 SE8       30.43S WCI   5
$$

MNZ071-072-080-081-089-090-097-098-280200-
SOUTHWEST MINNESOTA

CITY           SKY/WX    TMP DP  RH WIND       PRES   REMARKS
FAIRMONT       CLEAR      3  -6  66 S7        30.48S WCI  -9
JACKSON        CLEAR      9   0  66 S5        30.46S WCI   0
LUVERNE        CLEAR      3  -4  72 S6        30.45S WCI  -8
MARSHALL       CLEAR      7  -2  66 S6        30.46S WCI  -3
MONTEVIDEO     CLEAR      9   1  72 S3        30.47R
PIPESTONE      CLEAR      3  -2  78 S7        30.41R WCI  -9
REDWOOD FALLS  CLEAR      8   0  69 S6        30.48R WCI  -2
TRACY          CLEAR      8   0  69 S7        30.45S WCI  -3
WINDOM         CLEAR      7   0  72 CALM      30.46S
WORTHINGTON    CLEAR     19  -6  32 S8        30.45S WCI   9
$$

IAZ001>003-012>014-020>022-031-032-NEZ013-014-SDZ071-280200-
NORTHWEST IOWA

CITY           SKY/WX    TMP DP  RH WIND       PRES   REMARKS
CHEROKEE       CLEAR      4  -4  69 SE6       30.51R WCI  -7
DENISON        CLEAR      5  -2  72 SE5       30.50R WCI  -4
ESTHERVILLE    CLEAR      1  -4  79 S8        30.48S WCI -13
LE MARS        CLEAR      9   0  66 SE9       30.49R WCI  -5
ORANGE CITY    CLEAR      9  -2  61 SE6       30.46S WCI  -1
SHELDON        CLEAR      5  -2  72 S7        30.46R WCI  -7
SIOUX CITY     CLEAR     13   4  67 SE8       30.49  WCI   2
SPENCER        CLEAR      1  -6  72 S8        30.49R WCI -13
STORM LAKE     CLEAR      3  -6  66 S8        30.49R WCI -10
$$

ABBREVIATIONS USED IN REMARKS
   TC - TEMPERATURE IN CELSIUS
  WCI - WIND CHILL INDEX
   HX - HEAT INDEX
  VSB - VISIBILITY




USA.gov is the U.S. government's official web portal to all federal, state and local government web resources and services.